Aberdeen, SD

11:56 PM CDT on August 19, 2017 (GMT -0500)
Aberdeen Regional

Weather History for KABR - February, 2014

Change the Weather History Date:

Wednesday, February 5, 2014

  Actual Average Record
Temperature  
Mean Temperature -6 °F 14 °F  
Max Temperature 2 °F 25 °F 57 °F (1991)
Min Temperature -15 °F 4 °F -36 °F (1907)
Degree Days  
Heating Degree Days 71 51  
Month to date heating degree days 322 256  
Since 1 July heating degree days 5853 5390  
Cooling Degree Days 0 0  
Month to date cooling degree days 0 0  
Year to date cooling degree days 0 0  
Moisture  
Dew Point -10 °F    
Average Humidity 70    
Maximum Humidity 78    
Minimum Humidity 62    
Precipitation  
Precipitation T in 0.02 in 1.00 in (1915)
Month to date precipitation T 0.08  
Year to date precipitation 0.28 0.55  
Snow  
Snow T in 0.20 in 10.00 in (1915)
Month to date snowfall T 1.0  
Since 1 July snowfall 22.9 22.0  
Snow Depth 3.00 in    
Sea Level Pressure  
Sea Level Pressure 30.70 in    
Wind  
Wind Speed 13 mph (NW)    
Max Wind Speed 21 mph    
Max Gust Speed 25 mph    
Visibility 10 miles    
Events      
T = Trace of Precipitation, MM = Missing Value Source: NWS Daily Summary

Daily Weather History Graph

Daily Weather History Graph

Search for Another Location

Airport or City:

Trip Planner

Search our weather history database for the weather conditions in past years. The results will help you decide how hot, cold, wet, or windy it might be!

Date:

Astronomy

Feb. 05, 2014 Rise Set
Actual Time 7:49 AM CST 5:46 PM CST
Civil Twilight 7:18 AM CST 6:17 PM CST
Nautical Twilight 6:43 AM CST 6:52 PM CST
Astronomical Twilight 6:08 AM CST 7:27 PM CST
Moon 10:44 AM CST (2/5) 12:00 AM CST (2/5)
Length of Visible Light 10h 59m
Length of Day
9h 56m
Waxing Crescent, 39% of the Moon is Illuminated
Feb 5
Waxing Crescent
Feb 6
First Quarter
Feb 14
Full
Feb 22
Last Quarter
Mar 1
New

Hourly Weather History & Observations

Time (CST) Temp. Windchill Dew Point Humidity Pressure Visibility Wind Dir Wind Speed Gust Speed Precip Events Conditions
12:53 AM 1.0 °F -16.6 °F -7.1 °F 69% 30.72 in 10.0 mi NW 12.7 mph - N/A   Overcast
1:53 AM -0.0 °F -18.7 °F -8.0 °F 69% 30.71 in 10.0 mi NW 13.8 mph - N/A   Overcast
2:53 AM -0.9 °F -19.9 °F -9.0 °F 69% 30.72 in 10.0 mi NNW 13.8 mph - N/A   Mostly Cloudy
3:53 AM -2.0 °F -21.9 °F -9.0 °F 72% 30.72 in 10.0 mi NW 15.0 mph - N/A   Mostly Cloudy
4:53 AM -2.9 °F -20.8 °F -9.9 °F 72% 30.72 in 10.0 mi NW 11.5 mph - N/A   Mostly Cloudy
5:53 AM -2.9 °F -21.6 °F -9.9 °F 72% 30.73 in 10.0 mi NW 12.7 mph - N/A   Mostly Cloudy
6:53 AM -2.9 °F -21.6 °F -9.0 °F 75% 30.73 in 9.0 mi NW 12.7 mph - N/A   Overcast
7:53 AM -4.0 °F -23.0 °F -9.0 °F 79% 30.72 in 10.0 mi NW 12.7 mph - 0.00 in   Mostly Cloudy
8:53 AM -4.0 °F -22.1 °F -9.9 °F 76% 30.74 in 10.0 mi NW 11.5 mph - N/A   Clear
9:53 AM -0.9 °F -21.2 °F -8.0 °F 72% 30.74 in 10.0 mi NNW 16.1 mph - N/A   Overcast
10:53 AM -0.0 °F -19.4 °F -7.1 °F 72% 30.75 in 8.0 mi NW 15.0 mph - N/A   Overcast
11:53 AM 1.0 °F -16.6 °F -7.1 °F 69% 30.75 in 10.0 mi NW 12.7 mph - N/A   Overcast
12:53 PM 1.0 °F -18.0 °F -7.1 °F 69% 30.74 in 10.0 mi NNW 15.0 mph - N/A   Partly Cloudy
1:25 PM 1.9 °F -17.5 °F -7.1 °F 66% 30.61 in 10.0 mi NW 16.1 mph - N/A   Mostly Cloudy
1:53 PM 1.9 °F -18.1 °F -7.1 °F 66% 30.71 in 10.0 mi NNW 17.3 mph - N/A   Overcast
2:53 PM 1.9 °F -18.7 °F -8.0 °F 63% 30.70 in 10.0 mi NW 18.4 mph - N/A   Mostly Cloudy
3:53 PM 1.0 °F -19.3 °F -9.0 °F 63% 30.71 in 10.0 mi NW 17.3 mph - N/A   Scattered Clouds
4:26 PM -0.0 °F -19.4 °F -9.9 °F 63% 30.60 in 10.0 mi NW 15.0 mph 23.0 mph N/A   Mostly Cloudy
4:36 PM -0.0 °F -20.7 °F -9.0 °F 66% 30.60 in 10.0 mi NW 17.3 mph - N/A   Scattered Clouds
4:43 PM -0.0 °F -21.3 °F -9.0 °F 66% 30.59 in 10.0 mi NNW 18.4 mph - N/A   Mostly Cloudy
4:53 PM -0.0 °F -21.8 °F -9.9 °F 63% 30.71 in 10.0 mi NW 19.6 mph - N/A   Scattered Clouds
5:53 PM -2.0 °F -21.2 °F -11.0 °F 66% 30.71 in 10.0 mi NW 13.8 mph - N/A   Clear
6:53 PM -4.0 °F -23.0 °F -11.9 °F 69% 30.72 in 10.0 mi NW 12.7 mph - N/A   Clear
7:53 PM -5.1 °F -26.6 °F -13.0 °F 69% 30.71 in 10.0 mi NW 16.1 mph - N/A   Clear
8:53 PM -7.1 °F -22.8 °F -14.1 °F 72% 30.70 in 10.0 mi NW 8.1 mph - N/A   Clear
9:53 PM -11.9 °F -27.3 °F -16.1 °F 82% 30.69 in 10.0 mi WSW 6.9 mph - N/A   Clear
10:53 PM -11.9 °F -25.7 °F -16.1 °F 82% 30.68 in 10.0 mi West 5.8 mph - N/A   Mostly Cloudy
11:53 PM -14.1 °F -28.3 °F -18.0 °F 82% 30.66 in 10.0 mi WSW 5.8 mph - N/A   Clear